Home   Weather   Launceston   Past weeks
Flag for Australia

Past Weather in Launceston, Tasmania, Australia — Yesterday and Last 2 Weeks

Now
57 °F

Sunny.


Feels Like: 53 °F
Forecast: 55 / 42 °F
Wind: 18 mph from North

Location: Launceston Airport

Current Time: Apr 25, 2019 at 10:17:22 am

Latest Report: Apr 25, 2019 at 9:30 am


Visibility: N/A

Pressure: 29.95 "Hg

Humidity: 63%

Dew Point: 45 °F

Location of LauncestonLocation

Past Weather in Launceston — Graph

°F

Launceston Temperature Yesterday

Maximum temperature yesterday: 61 °F (at 12:30 pm)
Minimum temperature yesterday: 43 °F (at 3:38 am)
Average temperature yesterday: 52 °F

High & Low Weather Summary for the Past Weeks

 TemperatureHumidityPressure
High75 °F (Apr 16, 2:30 pm)100% (Apr 11, 8:00 am)30.45 "Hg (Apr 11, 8:00 am)
Low36 °F (Apr 11, 5:00 am)30% (Apr 11, 3:00 pm)29.89 "Hg (Apr 17, 10:30 pm)
Average54 °F76%30.21 "Hg
* Reported Apr 10 9:00 am — Apr 25 9:00 am, Launceston. Weather by CustomWeather, © 2019

Note: Actual official high and low records may vary slightly from our data, if they occured in-between our weather recording intervals... More about our weather records

Advertising

Launceston Weather History for the Previous 24 Hours

Scroll right to see more
 ConditionsComfort  
Time TempWeatherWind HumidityBarometerVisibility
9:00 am
Thu, Apr 25
55 °FSunny.18 mph67%29.95 "HgN/A
8:30 am54 °FSunny.17 mph72%29.95 "HgN/A
8:00 am52 °FSunny.16 mph77%29.95 "HgN/A
7:30 am48 °FSunny.14 mph82%29.95 "HgN/A
7:00 am48 °FSunny.10 mph82%29.95 "HgN/A
6:30 am48 °FClear.12 mph82%29.95 "HgN/A
6:00 am48 °FClear.10 mph82%29.95 "HgN/A
5:30 am50 °FClear.15 mph71%29.92 "HgN/A
4:30 am48 °FClear.15 mph76%29.92 "HgN/A
4:00 am50 °FClear.10 mph71%29.92 "HgN/A
3:30 am52 °FClear.15 mph72%29.95 "HgN/A
3:00 am54 °FClear.18 mph72%29.92 "HgN/A
2:30 am54 °FClear.17 mph82%29.95 "HgN/A
2:00 am55 °FPassing clouds.20 mph77%29.95 "HgN/A
1:30 am54 °FPassing clouds.17 mph82%29.95 "HgN/A
1:00 am55 °FPartly cloudy.17 mph77%29.95 "HgN/A
12:30 am55 °FPartly cloudy.20 mph77%29.95 "HgN/A
12:00 am55 °FPartly cloudy.20 mph77%29.95 "HgN/A
11:30 pm
Wed, Apr 24
54 °FPassing clouds.17 mph82%29.98 "HgN/A
11:00 pm54 °FPassing clouds.17 mph77%29.98 "HgN/A
10:30 pm52 °FClear.15 mph82%29.98 "HgN/A
10:00 pm52 °FClear.17 mph77%30.01 "HgN/A
9:30 pm52 °FClear.15 mph77%30.01 "HgN/A
9:00 pm52 °FClear.16 mph77%30.01 "HgN/A
8:30 pm52 °FClear.17 mph77%30.01 "HgN/A
8:00 pm52 °FClear.15 mph77%30.01 "HgN/A
7:30 pm54 °FClear.18 mph82%30.01 "HgN/A
7:00 pm54 °FPassing clouds.16 mph88%30.01 "HgN/A
6:30 pm54 °FPassing clouds.15 mph94%30.01 "HgN/A
6:00 pm55 °FPassing clouds.15 mph88%30.01 "HgN/A
5:30 pm55 °FPassing clouds.16 mph88%30.01 "HgN/A
5:00 pm57 °FScattered clouds.20 mph77%30.01 "HgN/A
4:30 pm57 °FPartly sunny.21 mph77%30.01 "HgN/A
4:00 pm57 °FScattered clouds.16 mph77%30.04 "HgN/A
3:30 pm59 °FScattered clouds.17 mph72%30.04 "HgN/A
3:00 pm59 °FScattered clouds.18 mph72%30.04 "HgN/A
2:30 pm61 °FBroken clouds.20 mph68%30.04 "HgN/A
2:00 pm61 °FBroken clouds.17 mph68%30.07 "HgN/A
1:30 pm59 °FMore clouds than sun.20 mph68%30.09 "HgN/A
1:00 pm59 °FMostly cloudy.20 mph72%30.07 "HgN/A
12:30 pm61 °FMostly cloudy.18 mph72%30.09 "HgN/A
12:25 pm59 °FPartly sunny.18 mph72%30.09 "HgN/A
12:00 pm57 °FMostly cloudy.18 mph77%30.12 "HgN/A
11:30 am57 °FOvercast.16 mph77%30.15 "HgN/A
11:04 am57 °FPartly sunny.15 mph82%30.15 "HgN/A
11:03 am57 °FPartly sunny.15 mph82%30.15 "HgN/A
10:00 am54 °FOvercast.10 mph94%30.15 "HgN/A
Weather by CustomWeather, © 2019

See weather overview